[[{"header":{"parameterUnit":"m.s-1","parameterCategory":2,"la1":30.2991,"la2":30.254,"lo1":-89.0895,"lo2":-89.0444,"dy":0.0017,"dx":0.0017,"nx":28,"ny":28,"refTime":"2025-11-24T09:00:00:Z","depth":"0","parameterNumber":2,"parameterNumberName":"U-component_of_CURRENTS"},"data":[0,0,0,0,0,0,0,0,0,0,0,0,0,0,0,0,0,0,0,0,0,0,0,0,0,0,0,0,0,0,0,0,0,0,0,0,0,0,0,0,0,0,0,0,0,0,0,0,0,0,0,0,0,0,0,0,0,0,-0.3022,-0.3023,0,-0.3069,-0.3069,-0.307,-0.303,-0.3029,-0.3027,-0.3026,-0.3016,-0.3017,-0.3018,0,0,0,0,0,0,0,0,0,0,0,0,0,-0.2913,-0.2915,-0.3022,-0.3023,-0.3024,-0.3069,-0.3069,-0.307,-0.303,-0.3029,-0.3027,-0.3026,-0.3016,-0.3017,-0.3018,0,0,0,0,0,0,0,0,0,0,0,0,0,-0.2958,-0.2916,-0.3022,-0.3012,-0.3011,-0.3069,-0.3069,-0.307,-0.3031,-0.3029,-0.3027,-0.3025,-0.3015,-0.3017,-0.3018,-0.307,0,0,-0.3023,-0.3024,0,0,0,0,0,0,0,0,-0.2955,-0.2961,-0.3012,-0.3012,-0.3012,-0.3044,-0.3028,-0.3068,-0.3031,-0.302,-0.3026,-0.3024,-0.3024,-0.3024,-0.3035,-0.3069,-0.3069,-0.3023,-0.3024,-0.3025,-0.3025,0,0,0,0,0,0,0,-0.2952,-0.2959,-0.3038,-0.3013,-0.3013,-0.301,-0.3014,-0.3035,-0.303,-0.3021,-0.3019,-0.303,-0.3022,-0.3033,-0.3034,-0.3069,-0.3023,-0.3025,-0.3026,-0.3026,-0.3106,-0.3107,0,0,0,0,0,0,-0.2954,-0.2957,-0.3036,-0.3039,-0.2981,-0.3014,-0.3018,-0.3034,-0.3031,-0.303,-0.3031,-0.3028,-0.3032,-0.3032,-0.3033,-0.3057,-0.3025,-0.3026,-0.3027,-0.3105,-0.3106,-0.3107,0,0,0,0,0,0,-0.2952,-0.2961,-0.3034,-0.3001,-0.301,-0.3018,-0.3036,-0.3036,-0.3038,-0.304,-0.3036,-0.3032,-0.303,-0.3031,-0.3046,-0.3057,-0.3027,-0.3028,-0.3103,-0.3105,-0.3107,-0.3128,0,0,0,0,0,0,-0.2948,-0.296,-0.2967,-0.3001,-0.3012,-0.3068,-0.3039,-0.3038,-0.3049,-0.3044,-0.304,-0.3038,-0.3029,-0.3044,-0.3048,-0.3059,-0.303,-0.3102,-0.3104,-0.3106,-0.3126,-0.313,-0.3134,0,0,0,0,0,-0.2944,-0.2967,-0.2967,-0.2977,-0.3023,-0.307,-0.3075,-0.3071,-0.3051,-0.3062,-0.3053,-0.3037,-0.306,-0.3047,-0.3051,-0.3063,-0.3101,-0.3103,-0.3106,-0.3124,-0.313,-0.3134,0,0,0,0,0,0,-0.292,-0.2967,-0.2967,-0.3,-0.3032,-0.3064,-0.3074,-0.3076,-0.3081,-0.3069,-0.3058,-0.3056,-0.3074,-0.3073,-0.3058,-0.3093,-0.3077,-0.308,-0.3089,-0.3094,-0.3099,-0.3092,-0.3031,0,0,0,0,0,-0.2922,-0.2946,-0.2991,-0.3014,-0.3032,-0.3053,-0.3068,-0.3074,-0.3088,-0.3086,-0.3085,-0.3084,-0.3094,-0.3095,-0.3107,-0.3132,-0.3115,-0.3142,-0.3146,-0.315,-0.3148,-0.3143,-0.3145,-0.3116,-0.3116,-0.3116,0,0,-0.2915,-0.2946,-0.2956,-0.301,-0.3029,-0.3064,-0.3056,-0.3087,-0.3105,-0.3088,-0.3101,-0.3104,-0.3106,-0.3127,-0.3135,-0.3122,-0.3148,-0.3153,-0.3156,-0.3152,-0.3146,-0.3148,-0.315,-0.3118,-0.3118,-0.3117,0,0,-0.2921,-0.2946,-0.2969,-0.3004,-0.3047,-0.3069,-0.308,-0.3118,-0.312,-0.3149,-0.3134,-0.3142,-0.3163,-0.3161,-0.3164,-0.3204,-0.3174,-0.3209,-0.3219,-0.3214,-0.3216,-0.3217,-0.3187,-0.3185,-0.3206,-0.3206,-0.3206,0,-0.2908,-0.2947,-0.2982,-0.3019,-0.3043,-0.3072,-0.3102,-0.3126,-0.3159,-0.3165,-0.3153,-0.3179,-0.3178,-0.3197,-0.3203,-0.3211,-0.3194,-0.3197,-0.3218,-0.3219,-0.322,-0.3188,-0.3186,-0.3207,-0.3207,-0.3207,-0.3207,0,-0.2935,-0.2967,-0.2986,-0.3038,-0.3072,-0.3106,-0.315,-0.3175,-0.3181,-0.3197,-0.3219,-0.3222,-0.323,-0.3236,-0.3229,-0.3242,-0.3223,-0.3225,-0.3199,-0.3224,-0.3189,-0.3186,-0.3209,-0.3209,-0.3208,-0.3208,0,0,-0.2897,-0.2986,-0.2989,-0.3012,-0.3084,-0.3112,-0.3157,-0.3201,-0.3216,-0.3243,-0.3254,-0.3274,-0.3268,-0.3271,-0.3267,-0.3261,-0.3247,-0.3244,-0.3243,-0.3202,-0.3214,-0.3133,-0.3121,-0.3251,-0.3252,-0.3252,-0.3182,0,-0.2899,-0.2958,-0.3009,-0.3054,-0.3084,-0.3137,-0.3174,-0.3217,-0.3243,-0.3265,-0.3276,-0.3287,-0.3285,-0.3281,-0.3279,-0.3264,-0.3244,-0.3264,-0.3206,-0.3204,-0.312,-0.3118,-0.2985,-0.2906,-0.3179,-0.3179,-0.3178,0,-0.2896,-0.2939,-0.2983,-0.3054,-0.3072,-0.3103,-0.3157,-0.3199,-0.3251,-0.327,-0.3292,-0.3301,-0.3308,-0.3295,-0.3274,-0.3287,-0.3248,-0.3228,-0.3225,-0.3139,-0.3118,-0.293,-0.2891,-0.2862,-0.3174,-0.3175,-0.3175,0,-0.2826,-0.2913,-0.294,-0.2967,-0.3058,-0.3078,-0.3121,-0.3184,-0.3215,-0.3265,-0.3281,-0.3304,-0.3299,-0.3283,-0.3249,-0.3259,-0.3209,-0.3218,-0.3103,-0.3096,-0.2965,-0.2946,-0.288,-0.3183,-0.3183,-0.3183,-0.3183,0,-0.2797,-0.2815,-0.2905,-0.2919,-0.2945,-0.3028,-0.3057,-0.311,-0.3177,-0.3199,-0.3265,-0.3276,-0.3295,-0.3276,-0.3246,-0.316,-0.3203,-0.3093,-0.3073,-0.2968,-0.2951,-0.2907,-0.2934,-0.318,-0.3181,-0.3181,-0.3182,0,-0.2701,-0.2769,-0.2799,-0.2887,-0.2909,-0.2921,-0.3009,-0.3029,-0.3116,-0.3147,-0.3161,-0.324,-0.3224,-0.3221,-0.3182,-0.3133,-0.3011,-0.3027,-0.289,-0.2854,-0.2718,-0.2752,-0.2665,-0.2589,-0.2888,-0.2885,-0.2883,0,-0.2651,-0.2658,-0.2741,-0.2749,-0.278,-0.2823,-0.2846,-0.2964,-0.2995,-0.3112,-0.311,-0.3139,-0.3126,-0.3059,-0.2986,-0.2901,-0.2901,-0.2722,-0.2719,-0.2679,-0.2703,-0.2731,-0.2676,-0.255,-0.2545,-0.2542,-0.2539,0,-0.254,-0.257,-0.2594,-0.2618,-0.264,-0.2677,-0.2728,-0.2754,-0.2886,-0.2926,-0.2973,-0.2982,-0.295,-0.2826,-0.2734,-0.2669,-0.2649,-0.264,-0.2636,-0.2458,-0.2446,-0.2372,-0.2627,-0.2505,-0.2508,-0.2511,-0.2513,-0.2514,-0.2433,-0.242,-0.2452,-0.2457,-0.2485,-0.2497,-0.2477,-0.2559,-0.2594,-0.2632,-0.2753,-0.2732,-0.2679,-0.2543,-0.2473,-0.2314,-0.2404,-0.2241,-0.229,-0.2326,-0.2236,-0.2406,-0.2246,-0.2248,-0.2249,-0.2251,-0.2252,0,-0.2284,-0.2286,-0.2287,-0.2293,-0.2256,-0.2329,-0.236,-0.232,-0.2303,-0.2398,-0.2413,-0.2408,-0.227,-0.2242,-0.2108,-0.1999,-0.1952,-0.1954,-0.1968,-0.1931,-0.209,-0.2058,-0.1804,-0.1804,-0.1804,-0.1804,-0.1804,-0.1804,-0.2207,-0.2152,-0.2156,-0.2051,-0.2048,-0.1952,-0.1932,-0.1909,-0.194,-0.1939,-0.1991,-0.2088,-0.2085,-0.2147,-0.1973,-0.186,-0.1818,-0.1751,-0.18,-0.1932,-0.1963,-0.1993,-0.1968,-0.1699,-0.1699,-0.155,-0.1549,-0.1549]},{"header":{"parameterUnit":"m.s-1","parameterCategory":2,"la1":30.2991,"la2":30.254,"lo1":-89.0895,"lo2":-89.0444,"dy":0.0017,"dx":0.0017,"nx":28,"ny":28,"refTime":"2025-11-24T09:00:00:Z","depth":"0","parameterNumber":3,"parameterNumberName":"V-component_of_CURRENTS"},"data":[0,0,0,0,0,0,0,0,0,0,0,0,0,0,0,0,0,0,0,0,0,0,0,0,0,0,0,0,0,0,0,0,0,0,0,0,0,0,0,0,0,0,0,0,0,0,0,0,0,0,0,0,0,0,0,0,0,0,-0.0431,-0.043,0,-0.0333,-0.0331,-0.033,-0.0256,-0.0255,-0.0255,-0.0254,-0.0103,-0.0099,-0.0096,0,0,0,0,0,0,0,0,0,0,0,0,0,-0.049,-0.049,-0.0431,-0.043,-0.0429,-0.0333,-0.0331,-0.033,-0.0256,-0.0255,-0.0255,-0.0254,-0.0104,-0.0099,-0.0095,0,0,0,0,0,0,0,0,0,0,0,0,0,-0.0434,-0.049,-0.0431,-0.0382,-0.0376,-0.0333,-0.0331,-0.0329,-0.0256,-0.0255,-0.0254,-0.0254,-0.0105,-0.01,-0.0095,-0.0077,0,0,-0.0078,-0.0076,0,0,0,0,0,0,0,0,-0.0437,-0.0432,-0.039,-0.0385,-0.0379,-0.0307,-0.0296,-0.0243,-0.0256,-0.03,-0.0254,-0.0253,-0.0168,-0.0157,-0.0139,-0.007,-0.0063,-0.0078,-0.0075,-0.0072,-0.0071,0,0,0,0,0,0,0,-0.0441,-0.0435,-0.039,-0.0389,-0.0382,-0.0342,-0.0334,-0.0286,-0.0237,-0.0296,-0.0291,-0.0283,-0.0164,-0.0144,-0.0134,-0.0061,-0.0078,-0.0073,-0.007,-0.0068,0.0035,0.0034,0,0,0,0,0,0,-0.0461,-0.0439,-0.0393,-0.0387,-0.0409,-0.0342,-0.0333,-0.033,-0.0238,-0.0225,-0.0284,-0.028,-0.0153,-0.0141,-0.0129,-0.0105,-0.0072,-0.0067,-0.0064,0.0035,0.0035,0.0034,0,0,0,0,0,0,-0.0463,-0.0458,-0.0397,-0.0412,-0.0402,-0.0343,-0.0339,-0.0328,-0.0307,-0.023,-0.0215,-0.0275,-0.0152,-0.0136,-0.009,-0.0098,-0.0065,-0.006,0.0036,0.0035,0.0034,-0.0055,0,0,0,0,0,0,-0.0465,-0.046,-0.0465,-0.0414,-0.0402,-0.0382,-0.034,-0.0327,-0.0304,-0.0298,-0.0217,-0.0202,-0.0151,-0.0099,-0.0085,-0.009,-0.0056,0.0036,0.0036,0.0035,-0.0052,-0.0059,-0.0065,0,0,0,0,0,-0.0468,-0.0484,-0.0466,-0.0461,-0.0411,-0.0383,-0.0373,-0.0327,-0.0305,-0.0303,-0.0247,-0.0205,-0.0095,-0.0095,-0.0079,-0.0083,0.0037,0.0036,0.0035,-0.0049,-0.0058,-0.0065,0,0,0,0,0,0,-0.0512,-0.0477,-0.0456,-0.046,-0.0428,-0.0371,-0.0367,-0.0335,-0.0289,-0.0282,-0.0207,-0.0189,-0.0154,-0.0107,-0.0109,-0.0056,-0.0023,-0.0021,-0.0092,-0.01,-0.0107,-0.012,-0.0051,0,0,0,0,0,-0.0527,-0.0528,-0.0485,-0.0487,-0.0476,-0.0423,-0.0405,-0.0375,-0.0329,-0.0308,-0.0251,-0.0193,-0.0146,-0.0116,-0.0069,-0.0037,0.0017,-0.0029,-0.0036,-0.0042,-0.0043,0.0022,0.0021,0.0031,0.0031,0.0031,0,0,-0.0544,-0.0525,-0.0525,-0.0497,-0.0467,-0.0462,-0.041,-0.0393,-0.0383,-0.0299,-0.0269,-0.0216,-0.0145,-0.0111,-0.0091,-0.0072,-0.0016,-0.0044,-0.0049,-0.0046,0.0021,0.002,0.0019,0.003,0.003,0.003,0,0,-0.0586,-0.0564,-0.0581,-0.0562,-0.053,-0.0495,-0.0496,-0.0444,-0.0416,-0.0383,-0.0323,-0.0275,-0.0203,-0.0152,-0.0118,-0.0133,-0.0059,-0.012,-0.0157,-0.0095,-0.0095,-0.0095,-0.0027,-0.002,-0.0118,-0.0119,-0.0119,0,-0.0609,-0.0623,-0.0581,-0.0593,-0.0584,-0.0518,-0.0533,-0.0496,-0.0435,-0.0412,-0.0388,-0.0278,-0.0222,-0.017,-0.0177,-0.0148,-0.0098,-0.0134,-0.0104,-0.0102,-0.01,-0.0031,-0.0022,-0.0123,-0.0123,-0.0122,-0.0122,0,-0.0663,-0.0672,-0.0681,-0.0673,-0.0657,-0.0659,-0.0607,-0.0583,-0.054,-0.0494,-0.0437,-0.0356,-0.0289,-0.0267,-0.0224,-0.0183,-0.0148,-0.0126,-0.0086,-0.0107,-0.0032,-0.0021,-0.013,-0.0128,-0.0127,-0.0125,0,0,-0.0718,-0.0721,-0.0723,-0.0735,-0.0701,-0.0695,-0.0678,-0.0641,-0.0624,-0.0555,-0.0522,-0.0441,-0.0387,-0.0344,-0.028,-0.0222,-0.0166,-0.0174,-0.0169,-0.0112,-0.0021,0.0031,0.0049,-0.0139,-0.0137,-0.0136,0.0025,0,-0.0772,-0.0822,-0.0799,-0.0832,-0.0852,-0.0791,-0.0781,-0.0734,-0.0676,-0.0626,-0.0528,-0.0475,-0.0418,-0.0385,-0.0321,-0.0205,-0.0141,-0.0211,-0.0005,0.0001,0.0046,0.0062,0.0097,0.0246,0.0036,0.0038,0.004,0,-0.0832,-0.0858,-0.091,-0.0916,-0.0917,-0.092,-0.0884,-0.0864,-0.0773,-0.0726,-0.0646,-0.0562,-0.0463,-0.0417,-0.0227,-0.0274,-0.016,-0.0066,-0.0057,0.0032,0.0075,0.0234,0.0275,0.045,0.0058,0.0056,0.0055,0,-0.0898,-0.093,-0.0977,-0.098,-0.0975,-0.0978,-0.0963,-0.0896,-0.0876,-0.0782,-0.0745,-0.0617,-0.0543,-0.0393,-0.0197,-0.0212,0.0023,0.0029,0.0188,0.0194,0.0286,0.0297,0.0518,0.0162,0.0162,0.0161,0.0161,0,-0.0967,-0.1,-0.1013,-0.104,-0.1084,-0.1048,-0.1062,-0.1022,-0.0958,-0.0931,-0.0802,-0.0737,-0.0534,-0.0372,-0.0206,0.0037,0.0022,0.0193,0.0242,0.0255,0.0261,0.0468,0.0529,0.0168,0.0166,0.0165,0.0164,0,-0.1031,-0.104,-0.1096,-0.1113,-0.112,-0.1148,-0.1139,-0.1139,-0.1066,-0.1022,-0.0994,-0.0818,-0.0601,-0.0375,-0.0112,0.0032,0.0369,0.0341,0.0347,0.0392,0.0678,0.073,0.1,0.1099,0.0532,0.0535,0.0537,0,-0.1069,-0.1106,-0.1157,-0.1194,-0.1205,-0.1236,-0.1252,-0.1203,-0.119,-0.1062,-0.1039,-0.0827,-0.0658,-0.0241,0.0053,0.037,0.0498,0.0578,0.0552,0.0716,0.0811,0.0846,0.0911,0.0645,0.0648,0.065,0.0652,0,-0.1135,-0.1151,-0.1195,-0.1276,-0.1314,-0.1353,-0.1364,-0.1373,-0.1298,-0.123,-0.1093,-0.0945,-0.0532,-0.0156,0.0256,0.0449,0.0706,0.0632,0.0809,0.0928,0.0976,0.1085,0.0518,0.0672,0.067,0.0668,0.0667,0.0666,-0.117,-0.1221,-0.1279,-0.1349,-0.14,-0.1447,-0.1468,-0.1453,-0.142,-0.1296,-0.1146,-0.0882,-0.0339,0.0253,0.0476,0.0944,0.0895,0.1073,0.1128,0.1154,0.1238,0.0712,0.0906,0.0906,0.0905,0.0905,0.0904,0,-0.1207,-0.1265,-0.1345,-0.1425,-0.1486,-0.1492,-0.152,-0.1504,-0.1457,-0.1302,-0.1132,-0.054,0.0006,0.0513,0.1166,0.142,0.1471,0.1548,0.1613,0.1659,0.1217,0.1209,0.1468,0.1468,0.1468,0.1468,0.1467,0.1467,-0.1228,-0.131,-0.1356,-0.1468,-0.1521,-0.1563,-0.1572,-0.1527,-0.1414,-0.1123,-0.0802,-0.0548,0.0193,0.1224,0.1825,0.1887,0.2087,0.208,0.2185,0.188,0.184,0.1801,0.1811,0.2192,0.2193,0.261,0.2615,0.2618]}],[{"header":{"parameterUnit":"m.s-1","parameterCategory":2,"la1":30.2991,"la2":30.254,"lo1":-89.0895,"lo2":-89.0444,"dy":0.0017,"dx":0.0017,"nx":28,"ny":28,"refTime":"2025-11-24T09:00:00:Z","depth":"2","parameterNumber":2,"parameterNumberName":"U-component_of_CURRENTS"},"data":[0,0,0,0,0,0,0,0,0,0,0,0,0,0,0,0,0,0,0,0,0,0,0,0,0,0,0,0,0,0,0,0,0,0,0,0,0,0,0,0,0,0,0,0,0,0,0,0,0,0,0,0,0,0,0,0,0,0,-0.2726,-0.2727,0,-0.2775,-0.2775,-0.2776,-0.275,-0.2749,-0.2748,-0.2747,-0.2755,-0.2757,-0.2758,0,0,0,0,0,0,0,0,0,0,0,0,0,-0.2626,-0.2628,-0.2726,-0.2727,-0.2728,-0.2775,-0.2775,-0.2776,-0.2751,-0.2749,-0.2748,-0.2747,-0.2755,-0.2756,-0.2758,0,0,0,0,0,0,0,0,0,0,0,0,0,-0.2669,-0.2628,-0.2726,-0.2723,-0.2723,-0.2775,-0.2775,-0.2776,-0.2751,-0.2749,-0.2748,-0.2746,-0.2754,-0.2756,-0.2758,-0.2802,0,0,-0.2764,-0.2764,0,0,0,0,0,0,0,0,-0.2667,-0.2673,-0.2722,-0.2723,-0.2724,-0.2757,-0.2743,-0.2783,-0.2751,-0.2738,-0.2747,-0.2745,-0.2755,-0.2757,-0.2767,-0.2802,-0.2802,-0.2764,-0.2765,-0.2766,-0.2766,0,0,0,0,0,0,0,-0.2664,-0.2671,-0.2743,-0.2724,-0.2724,-0.2724,-0.2728,-0.2751,-0.2752,-0.2739,-0.2738,-0.2748,-0.2754,-0.2765,-0.2766,-0.2802,-0.2764,-0.2765,-0.2766,-0.2767,-0.2855,-0.2856,0,0,0,0,0,0,-0.2664,-0.2668,-0.2742,-0.2745,-0.2694,-0.2727,-0.2732,-0.2746,-0.2753,-0.2753,-0.2749,-0.2746,-0.2763,-0.2764,-0.2767,-0.28,-0.2766,-0.2767,-0.2768,-0.2853,-0.2855,-0.2856,0,0,0,0,0,0,-0.2662,-0.2671,-0.274,-0.2709,-0.2718,-0.2731,-0.2747,-0.2748,-0.2755,-0.2761,-0.276,-0.2755,-0.2761,-0.2764,-0.2786,-0.28,-0.2768,-0.277,-0.2852,-0.2854,-0.2855,-0.2878,0,0,0,0,0,0,-0.2659,-0.267,-0.2677,-0.2709,-0.272,-0.2773,-0.2749,-0.275,-0.2765,-0.2762,-0.2767,-0.2766,-0.276,-0.2783,-0.2788,-0.2802,-0.2771,-0.285,-0.2853,-0.2855,-0.2876,-0.2881,-0.2885,0,0,0,0,0,-0.2655,-0.2676,-0.2677,-0.2686,-0.2731,-0.2774,-0.278,-0.2781,-0.2767,-0.278,-0.2778,-0.2766,-0.2801,-0.2786,-0.2791,-0.2806,-0.2849,-0.2852,-0.2855,-0.2874,-0.288,-0.2885,0,0,0,0,0,0,-0.2634,-0.2676,-0.2679,-0.2709,-0.274,-0.2771,-0.2783,-0.2788,-0.2799,-0.2792,-0.2786,-0.2787,-0.2812,-0.2812,-0.2796,-0.284,-0.2822,-0.2826,-0.2835,-0.2841,-0.2845,-0.2838,-0.2773,0,0,0,0,0,-0.2636,-0.2658,-0.27,-0.2722,-0.2739,-0.2762,-0.2778,-0.2786,-0.2804,-0.2806,-0.2811,-0.2817,-0.2831,-0.2836,-0.2851,-0.288,-0.2864,-0.2893,-0.2897,-0.2901,-0.29,-0.2896,-0.2899,-0.2865,-0.2865,-0.2865,0,0,-0.2631,-0.2659,-0.2669,-0.2719,-0.2738,-0.2773,-0.2767,-0.2799,-0.2821,-0.2808,-0.2831,-0.2838,-0.2844,-0.287,-0.2881,-0.2868,-0.2901,-0.2904,-0.2907,-0.2904,-0.2899,-0.2902,-0.2905,-0.2867,-0.2867,-0.2866,0,0,-0.2638,-0.2661,-0.2683,-0.2716,-0.2759,-0.2781,-0.2793,-0.2832,-0.2839,-0.2874,-0.2864,-0.2877,-0.2906,-0.2907,-0.2911,-0.2954,-0.2928,-0.2962,-0.2974,-0.2971,-0.2973,-0.2975,-0.2949,-0.2949,-0.2959,-0.2959,-0.2959,0,-0.2628,-0.2664,-0.2695,-0.2731,-0.2755,-0.2785,-0.2816,-0.2842,-0.288,-0.289,-0.2883,-0.292,-0.2922,-0.2945,-0.2953,-0.2962,-0.2948,-0.295,-0.2974,-0.2976,-0.2977,-0.2951,-0.295,-0.2961,-0.296,-0.296,-0.296,0,-0.2653,-0.2684,-0.2703,-0.2753,-0.2787,-0.2821,-0.2866,-0.2895,-0.2908,-0.2927,-0.2958,-0.2965,-0.2979,-0.2987,-0.2981,-0.2998,-0.2981,-0.2981,-0.2955,-0.2982,-0.2953,-0.2951,-0.2963,-0.2962,-0.2962,-0.2961,0,0,-0.2619,-0.2703,-0.2707,-0.2731,-0.2801,-0.2829,-0.2878,-0.2924,-0.2944,-0.2979,-0.2997,-0.3023,-0.302,-0.3026,-0.3024,-0.302,-0.3011,-0.3003,-0.3002,-0.2968,-0.2987,-0.2903,-0.2893,-0.3014,-0.3015,-0.3015,-0.2958,0,-0.2623,-0.2681,-0.2727,-0.2776,-0.2806,-0.2859,-0.2899,-0.2945,-0.2977,-0.3006,-0.3021,-0.304,-0.3038,-0.3039,-0.3039,-0.3026,-0.301,-0.3025,-0.2976,-0.2974,-0.2888,-0.289,-0.2678,-0.2604,-0.2956,-0.2956,-0.2956,0,-0.2622,-0.2663,-0.271,-0.2781,-0.2799,-0.2833,-0.2892,-0.2937,-0.2994,-0.3017,-0.3046,-0.3058,-0.307,-0.3057,-0.3043,-0.3052,-0.3018,-0.3001,-0.2998,-0.291,-0.2887,-0.2639,-0.2588,-0.2953,-0.2953,-0.2953,-0.2954,0,-0.256,-0.2645,-0.2675,-0.2702,-0.2792,-0.2816,-0.2861,-0.2928,-0.296,-0.3018,-0.3038,-0.3065,-0.3066,-0.3053,-0.3023,-0.3031,-0.2991,-0.2996,-0.2886,-0.2879,-0.2683,-0.2659,-0.2969,-0.2969,-0.2969,-0.2969,-0.2969,0,-0.2536,-0.2557,-0.2646,-0.2662,-0.2694,-0.2774,-0.281,-0.2865,-0.2934,-0.2958,-0.3028,-0.304,-0.3064,-0.3051,-0.3023,-0.2943,-0.2988,-0.2879,-0.2859,-0.2685,-0.2663,-0.2958,-0.2958,-0.2967,-0.2968,-0.2968,-0.2968,0,-0.245,-0.2516,-0.2551,-0.2639,-0.2662,-0.268,-0.2769,-0.2791,-0.2881,-0.2914,-0.293,-0.3009,-0.2996,-0.3001,-0.2968,-0.2922,-0.2868,-0.2823,-0.2609,-0.2564,-0.2757,-0.2759,-0.2695,-0.2692,-0.2689,-0.2687,-0.2685,0,-0.2407,-0.2417,-0.2502,-0.2513,-0.2546,-0.2595,-0.2619,-0.2734,-0.2764,-0.288,-0.2876,-0.2911,-0.2893,-0.2835,-0.2764,-0.2686,-0.2777,-0.2445,-0.2424,-0.2742,-0.273,-0.2736,-0.2741,-0.2168,-0.2162,-0.2157,-0.2153,0,-0.231,-0.2341,-0.2368,-0.2396,-0.2421,-0.2458,-0.2509,-0.2531,-0.2656,-0.2692,-0.273,-0.2734,-0.2706,-0.2542,-0.2463,-0.2392,-0.2448,-0.234,-0.2713,-0.2282,-0.2243,-0.2232,-0.2255,-0.2109,-0.2113,-0.2117,-0.2119,-0.2121,-0.2216,-0.2208,-0.2242,-0.2251,-0.2281,-0.2289,-0.2268,-0.2339,-0.2363,-0.2386,-0.2499,-0.2441,-0.2424,-0.2205,-0.2088,-0.2003,-0.2175,-0.2071,-0.2087,-0.2108,-0.2069,-0.2028,-0.1844,-0.1847,-0.185,-0.1852,-0.1854,0,-0.2085,-0.2088,-0.2092,-0.21,-0.2067,-0.2137,-0.2158,-0.2111,-0.2077,-0.2137,-0.2139,-0.1934,-0.1826,-0.1827,-0.163,-0.1586,-0.1571,-0.1513,-0.1496,-0.154,-0.158,-0.1515,-0.1143,-0.1141,-0.1139,-0.1137,0,0,-0.2017,-0.1969,-0.1969,-0.1873,-0.1873,-0.1782,-0.1756,-0.1715,-0.1717,-0.1648,-0.1623,-0.1752,-0.1788,-0.1477,-0.1389,-0.1242,-0.1379,-0.1174,-0.1743,-0.1769,-0.1806,-0.19,-0.1849,0,0,0,0,0]},{"header":{"parameterUnit":"m.s-1","parameterCategory":2,"la1":30.2991,"la2":30.254,"lo1":-89.0895,"lo2":-89.0444,"dy":0.0017,"dx":0.0017,"nx":28,"ny":28,"refTime":"2025-11-24T09:00:00:Z","depth":"2","parameterNumber":3,"parameterNumberName":"V-component_of_CURRENTS"},"data":[0,0,0,0,0,0,0,0,0,0,0,0,0,0,0,0,0,0,0,0,0,0,0,0,0,0,0,0,0,0,0,0,0,0,0,0,0,0,0,0,0,0,0,0,0,0,0,0,0,0,0,0,0,0,0,0,0,0,-0.0288,-0.0287,0,-0.02,-0.0199,-0.0198,-0.0131,-0.013,-0.013,-0.0129,0.0008,0.0011,0.0015,0,0,0,0,0,0,0,0,0,0,0,0,0,-0.0336,-0.0336,-0.0288,-0.0287,-0.0286,-0.0201,-0.0199,-0.0198,-0.0131,-0.013,-0.013,-0.0129,0.0007,0.0011,0.0015,0,0,0,0,0,0,0,0,0,0,0,0,0,-0.0287,-0.0335,-0.0288,-0.0244,-0.0239,-0.0201,-0.0199,-0.0197,-0.0131,-0.013,-0.013,-0.0129,0.0006,0.0011,0.0015,0.0032,0,0,0.003,0.0032,0,0,0,0,0,0,0,0,-0.029,-0.0285,-0.0251,-0.0247,-0.0241,-0.0177,-0.0166,-0.0119,-0.0131,-0.017,-0.0129,-0.0129,-0.0051,-0.0041,-0.0024,0.0038,0.0044,0.0031,0.0034,0.0036,0.0037,0,0,0,0,0,0,0,-0.0293,-0.0288,-0.0251,-0.025,-0.0244,-0.0207,-0.02,-0.0156,-0.0113,-0.0167,-0.0162,-0.0155,-0.0047,-0.0029,-0.0021,0.0046,0.0031,0.0035,0.0038,0.004,0.0134,0.0134,0,0,0,0,0,0,-0.0312,-0.0292,-0.0254,-0.0249,-0.0266,-0.0208,-0.0199,-0.0197,-0.0114,-0.0102,-0.0156,-0.0153,-0.0038,-0.0026,-0.0016,0.001,0.0036,0.004,0.0043,0.0134,0.0134,0.0133,0,0,0,0,0,0,-0.0313,-0.031,-0.0258,-0.0269,-0.026,-0.0208,-0.0206,-0.0196,-0.0178,-0.0107,-0.0094,-0.0149,-0.0037,-0.0022,0.0019,0.0016,0.0042,0.0047,0.0135,0.0134,0.0134,0.006,0,0,0,0,0,0,-0.0315,-0.0311,-0.0317,-0.0271,-0.026,-0.0245,-0.0206,-0.0195,-0.0175,-0.017,-0.0096,-0.0083,-0.0035,0.0011,0.0024,0.0023,0.0051,0.0135,0.0135,0.0134,0.0063,0.0057,0.0052,0,0,0,0,0,-0.0317,-0.0333,-0.0318,-0.0313,-0.0271,-0.0246,-0.0238,-0.0196,-0.0176,-0.0175,-0.0124,-0.0085,0.0016,0.0015,0.003,0.003,0.0136,0.0135,0.0134,0.0065,0.0058,0.0052,0,0,0,0,0,0,-0.0357,-0.0327,-0.0309,-0.0315,-0.0287,-0.0236,-0.0232,-0.0204,-0.0163,-0.0156,-0.0088,-0.0071,-0.0038,0.0004,0.0002,0.0054,0.0081,0.0083,0.0024,0.0017,0.0012,0.0001,0.0055,0,0,0,0,0,-0.0371,-0.0373,-0.0336,-0.034,-0.033,-0.0282,-0.0267,-0.0241,-0.0199,-0.018,-0.0128,-0.0075,-0.0031,-0.0002,0.0041,0.0072,0.012,0.0081,0.0075,0.007,0.007,0.0132,0.0132,0.013,0.013,0.013,0,0,-0.0387,-0.0371,-0.0372,-0.0348,-0.0322,-0.0317,-0.0271,-0.0257,-0.0246,-0.0171,-0.0143,-0.0095,-0.0029,0.0004,0.0023,0.0041,0.0095,0.0069,0.0064,0.0068,0.0131,0.0132,0.0132,0.013,0.013,0.013,0,0,-0.0425,-0.0407,-0.0424,-0.0407,-0.0379,-0.0348,-0.0349,-0.0303,-0.0277,-0.0246,-0.0191,-0.0145,-0.008,-0.0029,0.0005,-0.0006,0.0058,0.0004,-0.0024,0.0035,0.0036,0.0037,0.0095,0.0102,0.0007,0.0007,0.0007,0,-0.0446,-0.0459,-0.0424,-0.0434,-0.0426,-0.0368,-0.038,-0.0346,-0.0291,-0.0269,-0.025,-0.0146,-0.0094,-0.0038,-0.0043,-0.0017,0.0025,-0.0005,0.0028,0.003,0.0033,0.0092,0.0101,0.0003,0.0004,0.0004,0.0005,0,-0.0494,-0.0503,-0.0511,-0.0503,-0.0489,-0.0491,-0.0443,-0.0421,-0.0382,-0.0339,-0.0284,-0.0208,-0.0145,-0.0122,-0.0083,-0.0039,-0.0013,0.0008,0.0043,0.0029,0.0092,0.0102,-0.0002,-0.0001,0.0001,0.0001,0,0,-0.0545,-0.0547,-0.0549,-0.0559,-0.0527,-0.0522,-0.0503,-0.0466,-0.0449,-0.0385,-0.0353,-0.0272,-0.0224,-0.0184,-0.0123,-0.0066,-0.0013,-0.0028,-0.0023,0.0026,0.0119,0.0153,0.0169,0.0013,0.0014,0.0016,0.0155,0,-0.0592,-0.0636,-0.0614,-0.0642,-0.0659,-0.0603,-0.0591,-0.0546,-0.0493,-0.0447,-0.0351,-0.0301,-0.0248,-0.0218,-0.0154,-0.0049,0.0012,-0.0052,0.0129,0.0135,0.0164,0.0181,0.015,0.0273,0.0165,0.0167,0.0168,0,-0.0645,-0.0668,-0.0713,-0.0715,-0.0716,-0.0718,-0.0683,-0.0663,-0.0577,-0.0534,-0.0457,-0.038,-0.0282,-0.0241,-0.0063,-0.0108,-0.0005,0.0081,0.0088,0.0154,0.0189,0.0272,0.0297,0.0187,0.0185,0.0184,0.0183,0,-0.0706,-0.0732,-0.0772,-0.0775,-0.0768,-0.077,-0.0755,-0.0692,-0.0674,-0.0585,-0.0555,-0.0428,-0.0361,-0.022,-0.0043,-0.0053,0.0157,0.0168,0.0301,0.0305,0.0333,0.0337,0.0294,0.0294,0.0294,0.0294,0.0293,0,-0.0766,-0.0796,-0.0807,-0.0831,-0.087,-0.0836,-0.0849,-0.0812,-0.0753,-0.0731,-0.0607,-0.0551,-0.0354,-0.0207,-0.0053,0.0161,0.0154,0.0306,0.0347,0.0306,0.0306,0.0272,0.0268,0.0299,0.0298,0.0297,0.0296,0,-0.0825,-0.0833,-0.0882,-0.0896,-0.0904,-0.0931,-0.0926,-0.0926,-0.0861,-0.0824,-0.0799,-0.0635,-0.044,-0.0228,0.0016,0.0149,0.0348,0.0426,0.0365,0.0397,0.0458,0.0448,0.0585,0.0588,0.059,0.0592,0.0593,0,-0.086,-0.0893,-0.0941,-0.0976,-0.0987,-0.1018,-0.1035,-0.099,-0.0981,-0.087,-0.0852,-0.0661,-0.0508,-0.0131,0.0134,0.0423,0.0419,0.0554,0.0532,0.0463,0.049,0.0477,0.0464,0.0543,0.0544,0.0545,0.0546,0,-0.0921,-0.0937,-0.0977,-0.1056,-0.1094,-0.1131,-0.1145,-0.1156,-0.1088,-0.1032,-0.0913,-0.078,-0.0416,-0.0101,0.0268,0.0432,0.0503,0.0579,0.0543,0.0465,0.0433,0.0455,0.0443,0.0552,0.0552,0.0551,0.0551,0.055,-0.0956,-0.1004,-0.1059,-0.1127,-0.1177,-0.1223,-0.1245,-0.1233,-0.1206,-0.1096,-0.0968,-0.0734,-0.043,0.0099,0.0361,0.0605,0.0599,0.0661,0.0655,0.0649,0.0611,0.0582,0.0723,0.0724,0.0724,0.0724,0.0724,0,-0.0995,-0.1048,-0.1124,-0.1201,-0.1261,-0.1269,-0.1296,-0.128,-0.1239,-0.1105,-0.0955,-0.0605,-0.0239,0.0083,0.0475,0.0703,0.068,0.0736,0.0658,0.0651,0.0645,0.0602,0.0715,0.0716,0.0716,0.0717,0,0,-0.1016,-0.1094,-0.1135,-0.1243,-0.1297,-0.1341,-0.135,-0.1304,-0.1202,-0.1057,-0.0877,-0.0628,-0.023,0.0041,0.0331,0.0535,0.0531,0.0554,0.054,0.0407,0.0398,0.0584,0.0509,0,0,0,0,0]}],[{"header":{"parameterUnit":"m.s-1","parameterCategory":2,"la1":30.2991,"la2":30.254,"lo1":-89.0895,"lo2":-89.0444,"dy":0.0017,"dx":0.0017,"nx":28,"ny":28,"refTime":"2025-11-24T09:00:00:Z","depth":"4","parameterNumber":2,"parameterNumberName":"U-component_of_CURRENTS"},"data":[0,0,0,0,0,0,0,0,0,0,0,0,0,0,0,0,0,0,0,0,0,0,0,0,0,0,0,0,0,0,0,0,0,0,0,0,0,0,0,0,0,0,0,0,0,0,0,0,0,0,0,0,0,0,0,0,0,0,-0.192,-0.1921,0,-0.2005,-0.2006,-0.2007,-0.2052,-0.2052,-0.2052,-0.2052,-0.2145,-0.2147,-0.2149,0,0,0,0,0,0,0,0,0,0,0,0,0,-0.1805,-0.1807,-0.1919,-0.1921,-0.1922,-0.2005,-0.2006,-0.2007,-0.2052,-0.2052,-0.2052,-0.2052,-0.2144,-0.2147,-0.215,0,0,0,0,0,0,0,0,0,0,0,0,0,-0.1867,-0.1807,-0.1919,-0.1955,-0.196,-0.2004,-0.2006,-0.2007,-0.2052,-0.2052,-0.2052,-0.2053,-0.2143,-0.2147,-0.215,-0.2164,0,0,-0.216,-0.2162,0,0,0,0,0,0,0,0,-0.1864,-0.1871,-0.1949,-0.1953,-0.1958,-0.2019,-0.1999,-0.2061,-0.2051,-0.2015,-0.2052,-0.2053,-0.2104,-0.2111,-0.2124,-0.2169,-0.2173,-0.2161,-0.2163,-0.2164,-0.2165,0,0,0,0,0,0,0,-0.1859,-0.1868,-0.1952,-0.195,-0.1956,-0.1971,-0.198,-0.2011,-0.2056,-0.2018,-0.2022,-0.2034,-0.2107,-0.2121,-0.2127,-0.2174,-0.2161,-0.2164,-0.2166,-0.2167,-0.2309,-0.231,0,0,0,0,0,0,-0.1851,-0.1864,-0.1949,-0.1954,-0.1912,-0.1973,-0.1983,-0.1998,-0.2055,-0.2065,-0.2034,-0.2036,-0.2115,-0.2123,-0.213,-0.2218,-0.2164,-0.2167,-0.2169,-0.2307,-0.2309,-0.2311,0,0,0,0,0,0,-0.1849,-0.1858,-0.1946,-0.1912,-0.1924,-0.1974,-0.1991,-0.1999,-0.2045,-0.2067,-0.2077,-0.2075,-0.2115,-0.2125,-0.2186,-0.222,-0.2169,-0.2172,-0.2305,-0.2308,-0.231,-0.2351,0,0,0,0,0,0,-0.1845,-0.1857,-0.1881,-0.1912,-0.1926,-0.1994,-0.1991,-0.2001,-0.2051,-0.2055,-0.2105,-0.2112,-0.2116,-0.2181,-0.219,-0.2223,-0.2175,-0.2303,-0.2306,-0.2309,-0.2348,-0.2355,-0.2361,0,0,0,0,0,-0.1841,-0.1867,-0.1881,-0.1893,-0.1952,-0.1995,-0.2005,-0.2039,-0.2053,-0.208,-0.2114,-0.2112,-0.2208,-0.2186,-0.2195,-0.223,-0.2301,-0.2305,-0.2309,-0.2345,-0.2354,-0.2361,0,0,0,0,0,0,-0.1832,-0.1875,-0.1891,-0.1931,-0.1971,-0.2004,-0.2037,-0.2059,-0.2108,-0.2122,-0.2137,-0.2147,-0.2212,-0.2219,-0.2195,-0.2281,-0.2253,-0.2259,-0.2277,-0.2286,-0.2292,-0.2281,-0.2177,0,0,0,0,0,-0.184,-0.1873,-0.1913,-0.1948,-0.197,-0.201,-0.2039,-0.2065,-0.2104,-0.2128,-0.2163,-0.2199,-0.2231,-0.2257,-0.2288,-0.2339,-0.2321,-0.2368,-0.2375,-0.238,-0.2378,-0.238,-0.2386,-0.2324,-0.2324,-0.2324,0,0,-0.1847,-0.1876,-0.1896,-0.195,-0.1983,-0.2023,-0.2029,-0.2084,-0.2124,-0.213,-0.2206,-0.223,-0.2251,-0.2306,-0.2335,-0.2319,-0.2389,-0.2385,-0.2389,-0.2385,-0.2384,-0.239,-0.2395,-0.2326,-0.2326,-0.2326,0,0,-0.1865,-0.1904,-0.1934,-0.1972,-0.203,-0.2056,-0.2079,-0.2136,-0.2171,-0.2239,-0.225,-0.2293,-0.2357,-0.2369,-0.2382,-0.2447,-0.2426,-0.2467,-0.2493,-0.2494,-0.2499,-0.2502,-0.2483,-0.2485,-0.2469,-0.2469,-0.2469,0,-0.1874,-0.1915,-0.1951,-0.199,-0.2026,-0.2074,-0.2115,-0.2158,-0.2231,-0.226,-0.2273,-0.2361,-0.2381,-0.2426,-0.2448,-0.2461,-0.2452,-0.2457,-0.2501,-0.2504,-0.2507,-0.2486,-0.2488,-0.2471,-0.2471,-0.2471,-0.247,0,-0.1902,-0.1952,-0.1976,-0.2038,-0.2081,-0.213,-0.2186,-0.2243,-0.2292,-0.2325,-0.24,-0.243,-0.2473,-0.2492,-0.2491,-0.253,-0.2513,-0.2507,-0.2473,-0.2515,-0.2491,-0.2492,-0.2475,-0.2474,-0.2473,-0.2472,0,0,-0.1877,-0.1976,-0.1988,-0.2026,-0.2113,-0.2147,-0.2224,-0.2291,-0.2337,-0.241,-0.2458,-0.2518,-0.2533,-0.2548,-0.2557,-0.2563,-0.2575,-0.2549,-0.2548,-0.2517,-0.2567,-0.2399,-0.2383,-0.2578,-0.2579,-0.2579,-0.2539,0,-0.1891,-0.1963,-0.2014,-0.2092,-0.2132,-0.2204,-0.2264,-0.2335,-0.2395,-0.2455,-0.2494,-0.2547,-0.2554,-0.2577,-0.2588,-0.2583,-0.2579,-0.2585,-0.2541,-0.254,-0.2375,-0.2379,-0.2581,-0.2539,-0.2539,-0.2539,-0.2539,0,-0.1891,-0.1944,-0.2019,-0.2116,-0.2141,-0.2198,-0.2296,-0.2358,-0.2445,-0.2491,-0.2549,-0.2578,-0.2615,-0.2607,-0.2616,-0.2622,-0.2597,-0.2584,-0.2582,-0.2408,-0.2372,-0.2492,-0.2539,-0.2539,-0.2539,-0.2539,-0.2539,0,-0.1831,-0.1942,-0.2002,-0.2038,-0.2155,-0.2208,-0.2274,-0.237,-0.2418,-0.2512,-0.2546,-0.2601,-0.2625,-0.2623,-0.2605,-0.2616,-0.2588,-0.2594,-0.2418,-0.2406,-0.2552,-0.2549,-0.2582,-0.2582,-0.2582,-0.2582,-0.2582,0,-0.1802,-0.1854,-0.1986,-0.2017,-0.2089,-0.2184,-0.2261,-0.2335,-0.2427,-0.2461,-0.2556,-0.2571,-0.2631,-0.2625,-0.2606,-0.2497,-0.2587,-0.2408,-0.238,-0.2571,-0.2571,-0.2552,-0.2549,-0.2581,-0.2581,-0.2581,-0.2582,0,-0.1716,-0.1809,-0.1883,-0.2018,-0.2062,-0.2112,-0.2242,-0.228,-0.2392,-0.2437,-0.2464,-0.2551,-0.2538,-0.2562,-0.2545,-0.2468,-0.2402,-0.2341,-0.2529,-0.2515,-0.2223,-0.2223,-0.2138,-0.2131,-0.2126,-0.2121,-0.2117,0,-0.1673,-0.1706,-0.1858,-0.1897,-0.1962,-0.2056,-0.2104,-0.224,-0.2271,-0.2393,-0.2382,-0.2429,-0.246,-0.2296,-0.235,-0.2283,-0.226,-0.2209,-0.2226,-0.2193,-0.2175,-0.2184,-0.2192,-0.2109,-0.2108,-0.2106,-0.2105,0,-0.1581,-0.1654,-0.1713,-0.1794,-0.1861,-0.1924,-0.2005,-0.2011,-0.2142,-0.2265,-0.2229,-0.2213,-0.2189,-0.2172,-0.2126,-0.2088,-0.2236,-0.2153,-0.2164,-0.218,-0.2158,-0.2147,-0.2161,-0.2086,-0.2089,-0.209,-0.2091,0,-0.151,-0.1526,-0.1612,-0.1662,-0.1741,-0.1754,-0.1825,-0.1848,-0.1898,-0.2034,-0.2011,-0.207,-0.2155,-0.2067,-0.203,-0.1971,-0.195,-0.1887,-0.1913,-0.1934,-0.1886,-0.1829,-0.1614,0,0,0,0,0,-0.1426,-0.1425,-0.1465,-0.1516,-0.1585,-0.1626,-0.1731,-0.1803,-0.1929,-0.1843,-0.1922,-0.1892,-0.1843,-0.1882,-0.1777,-0.1942,-0.1961,-0.1812,-0.1903,-0.1982,-0.2004,-0.1966,0,0,0,0,0,0,-0.137,-0.1406,-0.1414,-0.1372,-0.1373,-0.143,-0.1487,-0.1581,-0.1547,-0.1682,-0.1663,-0.1766,-0.1747,-0.1864,-0.1733,-0.1741,-0.1756,-0.1859,-0.1854,-0.197,-0.199,-0.2007,-0.1976,0,0,0,0,0]},{"header":{"parameterUnit":"m.s-1","parameterCategory":2,"la1":30.2991,"la2":30.254,"lo1":-89.0895,"lo2":-89.0444,"dy":0.0017,"dx":0.0017,"nx":28,"ny":28,"refTime":"2025-11-24T09:00:00:Z","depth":"4","parameterNumber":3,"parameterNumberName":"V-component_of_CURRENTS"},"data":[0,0,0,0,0,0,0,0,0,0,0,0,0,0,0,0,0,0,0,0,0,0,0,0,0,0,0,0,0,0,0,0,0,0,0,0,0,0,0,0,0,0,0,0,0,0,0,0,0,0,0,0,0,0,0,0,0,0,-0.0191,-0.0191,0,-0.0135,-0.0134,-0.0133,-0.0086,-0.0086,-0.0086,-0.0085,0.002,0.0022,0.0025,0,0,0,0,0,0,0,0,0,0,0,0,0,-0.0213,-0.0213,-0.0191,-0.0191,-0.019,-0.0135,-0.0134,-0.0133,-0.0086,-0.0086,-0.0085,-0.0085,0.0019,0.0022,0.0025,0,0,0,0,0,0,0,0,0,0,0,0,0,-0.0183,-0.0213,-0.0191,-0.0161,-0.0158,-0.0135,-0.0134,-0.0133,-0.0086,-0.0086,-0.0085,-0.0085,0.0018,0.0022,0.0025,0.0038,0,0,0.0037,0.0038,0,0,0,0,0,0,0,0,-0.0185,-0.0182,-0.0166,-0.0164,-0.016,-0.0119,-0.0103,-0.0074,-0.0087,-0.0112,-0.0085,-0.0085,-0.0023,-0.0016,-0.0005,0.0043,0.0047,0.0037,0.0039,0.0041,0.0042,0,0,0,0,0,0,0,-0.0187,-0.0184,-0.0167,-0.0166,-0.0162,-0.0135,-0.0131,-0.0097,-0.0069,-0.011,-0.0107,-0.0103,-0.0021,-0.0009,-0.0002,0.0049,0.0037,0.004,0.0042,0.0044,0.0118,0.0118,0,0,0,0,0,0,-0.0201,-0.0186,-0.0169,-0.0166,-0.0173,-0.0136,-0.013,-0.0131,-0.007,-0.0062,-0.0104,-0.0101,-0.0015,-0.0007,0.0002,0.0024,0.0041,0.0044,0.0046,0.0118,0.0118,0.0117,0,0,0,0,0,0,-0.0201,-0.02,-0.0171,-0.0176,-0.017,-0.0136,-0.0137,-0.013,-0.0119,-0.0067,-0.0056,-0.01,-0.0015,-0.0003,0.0028,0.0028,0.0046,0.0049,0.0118,0.0118,0.0118,0.0066,0,0,0,0,0,0,-0.0202,-0.02,-0.0208,-0.0177,-0.0171,-0.0166,-0.0137,-0.013,-0.0119,-0.0115,-0.006,-0.005,-0.0013,0.0022,0.0031,0.0034,0.0052,0.0119,0.0118,0.0118,0.0068,0.0063,0.006,0,0,0,0,0,-0.0203,-0.0218,-0.0208,-0.0206,-0.0181,-0.0167,-0.0161,-0.0133,-0.0119,-0.012,-0.0081,-0.0052,0.0026,0.0024,0.0036,0.0039,0.0119,0.0118,0.0118,0.0069,0.0064,0.006,0,0,0,0,0,0,-0.023,-0.0213,-0.0203,-0.0211,-0.0194,-0.016,-0.016,-0.014,-0.0111,-0.0106,-0.0054,-0.0041,-0.0015,0.0017,0.0014,0.0058,0.0077,0.0078,0.0036,0.0032,0.0028,0.0019,0.0055,0,0,0,0,0,-0.0241,-0.0247,-0.0224,-0.023,-0.0225,-0.0194,-0.0185,-0.0167,-0.0137,-0.0124,-0.0086,-0.0045,-0.0009,0.0014,0.0046,0.0072,0.0109,0.0081,0.0077,0.0074,0.0073,0.0128,0.0129,0.0116,0.0116,0.0116,0,0,-0.0254,-0.0245,-0.0249,-0.0237,-0.0221,-0.0219,-0.0187,-0.018,-0.0172,-0.0117,-0.0097,-0.006,-0.0008,0.002,0.0035,0.0048,0.0096,0.0073,0.007,0.0071,0.0128,0.0129,0.013,0.0115,0.0115,0.0115,0,0,-0.0282,-0.0275,-0.0289,-0.028,-0.0265,-0.0243,-0.0245,-0.0215,-0.0197,-0.0176,-0.0132,-0.0095,-0.0047,-0.0003,0.0025,0.0019,0.0069,0.0026,0.0008,0.0061,0.0062,0.0064,0.0108,0.0114,0.003,0.003,0.003,0,-0.0299,-0.0311,-0.0291,-0.03,-0.0297,-0.0258,-0.0269,-0.0245,-0.0207,-0.0191,-0.0179,-0.0097,-0.0055,-0.0005,-0.0007,0.0012,0.0045,0.0021,0.0056,0.0059,0.0062,0.0106,0.0114,0.0027,0.0028,0.0028,0.0028,0,-0.0333,-0.0344,-0.0352,-0.035,-0.0344,-0.0348,-0.0315,-0.0301,-0.0275,-0.0243,-0.0199,-0.0139,-0.0089,-0.0068,-0.0038,0.0005,0.0021,0.0039,0.0067,0.006,0.0107,0.0116,0.0024,0.0025,0.0025,0.0026,0,0,-0.0368,-0.0377,-0.038,-0.039,-0.0372,-0.0372,-0.0358,-0.0332,-0.0322,-0.0273,-0.0249,-0.018,-0.0144,-0.0111,-0.0061,-0.001,0.0038,0.0018,0.0022,0.0059,0.0148,0.013,0.0138,0.0062,0.0063,0.0064,0.017,0,-0.0401,-0.0438,-0.0426,-0.0452,-0.0466,-0.0431,-0.0424,-0.0393,-0.0355,-0.0322,-0.0243,-0.0205,-0.016,-0.0138,-0.0079,0.0006,0.006,0.0007,0.0151,0.0155,0.0139,0.0147,0.0068,0.0177,0.0179,0.0181,0.0182,0,-0.0437,-0.0458,-0.0498,-0.0508,-0.051,-0.0518,-0.0499,-0.0486,-0.0422,-0.0392,-0.0329,-0.0269,-0.0184,-0.0151,0.0001,-0.0037,0.0048,0.0118,0.0124,0.0132,0.0153,0.0188,0.0199,0.0197,0.0196,0.0195,0.0194,0,-0.0476,-0.0504,-0.054,-0.0545,-0.055,-0.0559,-0.0555,-0.0512,-0.0502,-0.0435,-0.0417,-0.0307,-0.0256,-0.0132,0.0009,0.0006,0.0175,0.0191,0.026,0.026,0.0268,0.0265,0.0301,0.0301,0.03,0.03,0.03,0,-0.0511,-0.054,-0.0568,-0.0589,-0.0631,-0.0612,-0.0634,-0.0609,-0.0572,-0.0559,-0.046,-0.0419,-0.025,-0.0132,-0.0001,0.0153,0.0171,0.0259,0.0288,0.0242,0.0235,0.0275,0.027,0.0304,0.0303,0.0302,0.0302,0,-0.0543,-0.0561,-0.0609,-0.0639,-0.0654,-0.0684,-0.0703,-0.0709,-0.0667,-0.0645,-0.0627,-0.0499,-0.0345,-0.0169,0.0036,0.0128,0.0284,0.0337,0.0269,0.0292,0.0337,0.0329,0.0421,0.0421,0.0422,0.0422,0.0422,0,-0.0561,-0.0591,-0.0657,-0.0696,-0.0717,-0.0759,-0.0784,-0.0763,-0.076,-0.0689,-0.0675,-0.0534,-0.043,-0.0148,0.0027,0.0276,0.031,0.038,0.0365,0.0332,0.0351,0.0342,0.0334,0.0422,0.0423,0.0423,0.0423,0,-0.0592,-0.0622,-0.0662,-0.075,-0.0799,-0.0843,-0.0872,-0.0878,-0.0837,-0.0808,-0.0697,-0.0545,-0.0372,-0.0153,0.0038,0.0216,0.0327,0.0383,0.0384,0.0371,0.0335,0.0351,0.0343,0.0423,0.0423,0.0423,0.0423,0,-0.0612,-0.0654,-0.0717,-0.0786,-0.0856,-0.0899,-0.0913,-0.0891,-0.0876,-0.0787,-0.0754,-0.0554,-0.0438,-0.0183,-0.0007,0.0163,0.0204,0.0248,0.0257,0.0258,0.0174,0.0102,0.0147,0,0,0,0,0,-0.0625,-0.0674,-0.0747,-0.0821,-0.0891,-0.0924,-0.0954,-0.0949,-0.0917,-0.0844,-0.0792,-0.0622,-0.035,-0.023,-0.0061,-0.0014,0.022,0.0186,0.027,0.0428,0.0427,0.0354,0,0,0,0,0,0,-0.0635,-0.0707,-0.0745,-0.083,-0.0883,-0.0947,-0.0966,-0.0946,-0.0889,-0.0836,-0.0683,-0.0598,-0.0327,-0.0442,-0.0061,-0.0011,0.006,0.0319,0.0322,0.0428,0.0428,0.0427,0.0352,0,0,0,0,0]}]]